UNISAT

Satellite information

Favourite Embed

Satellite Type and Status

PAYLOADIN ORBIT

Key statistics

Satellite UNISAT at a glance.

Uptime

9110

Days in orbit

Revolutions

≈ 15.1

Per day

Orbit

LEO

Low Earth Orbit

Inclination

64.5

Latest

Satellite identification and parameters

Extended collection of information and parameters for UNISAT.

Object identification

Identified? True

Debris? False

Object name: UNISAT

International designator: 2000-057C

Object number (NORAD): 26547

Object ID (CCSDS): 26547

Country: ITALY (IT)

Current information (Y/N): Y

RCS size: SMALL

Orbital parameters

Period: 95.617 minutes

Inclination: 64.5475 deg

SMA: 6926.54 km

Apoapsis: 560.541 km

Periapsis: 536.269 km

RAAN: 316.2264 deg

Eccentricy: 0.00175216

Argument of periapsis: 331.4489 deg

Mean anomaly: 28.5668 deg

Mean motion: 15.06011337 rev/day

Mean motion (dot): 0.00010222 rev/day2

B* drag term: 0.0007069387 1/REarth

Two-line elements (TLE)

Creation date: Sept. 3, 2025, 10:15 a.m.

Reference frame: TEME

Reference center: EARTH

Epoch: Sept. 3, 2025, 3:46 a.m. UTC

TLE line 0: 0 UNISAT

TLE line 1: 1 26547U 00057C 25246.15758462 .00010222 00000-0 70694-3 0 9999

TLE line 2: 2 26547 64.5475 316.2264 0017522 331.4489 28.5668 15.06011337353238

Live tracking on map

Real-time ground track for satellite UNISAT.

In-orbit conjunctions

There are no conjunctions computed for UNISAT, at the moment. Check back to stay up to date, as we update our databases every day.

Go to all conjunctions

Associated space launch

Four small satellites were launched atop the Dnepr launch vehicle : MegSat 1, UniSat 1, TiungSat 1 as well as SaudiSat 1a and 1b. MegSat 1 is the second MegSat satellite. It is a LEO communications satellite. UniSat 1 is an Italian satellite developed and operated by GAUSS (La Sapienza University of Rome). TiungSAT-1 or MySat (Malaysian Satellite) is the first microsatellite for the Astronautic Technology (M) SDN. BHD. Company (ATSB) in Kuala Lumpur, Malaysia. Saudisat-1a and Saudisat-1b (Saudi Arabian Satellite) are the first Saudi Arabian micro satellites.

UNISAT was lifted into orbit during the mission ‘Dnepr | SmallSat Rideshare’, on board a Dnepr space rocket.

The launch took place on Sept. 26, 2000, 10:05 a.m. from 109/95.

For more information about the launch, click the button.

Launch to space Dnepr | SmallSat Rideshare
Dnepr | SmallSat Rideshare

Agency: N/A

Status: Launch Successful

Launch date: Sept. 26, 2000, 10:05 a.m. UTC

Rocket: Dnepr

Launch pad: 109/95

Location: Baikonur Cosmodrome, Republic of Kazakhstan

...

Latest news about this satellite

There are no fresh news available about this satellite. Check back as we update our databases every day.


Newsletter sign-up

Weekly statistics, charts and insights to help you stay on top of the space industry.